Location: Coed Ely
(51.5661°N, 3.4150°W)
Time: 19:40:59
(UTC+00:00)

Cosmos 990 Rocket - Pass Details

Date: 28 January 2021
Orbit: 748 x 768 km, 74.0° (Epoch: 27 February)

Event Time Altitude Azimuth Distance (km) Brightness Sun altitude
Rises 17:33:25 0° 182° (S) 3,208 7.6 -6.1°
Reaches altitude 10° 17:35:52 10° 176° (S) 2,284 6.7 -6.4°
Maximum altitude 17:40:45 44° 106° (ESE) 1,044 4.4 -7.1°
Drops below altitude 10° 17:45:39 10° 35° (NE) 2,287 6.0 -7.9°
Enters shadow 17:47:37 - 30° (NNE) 3,030 6.6 -8.1°
